Theta_e
319 318 317 316 315 315 314 316 318 319 320 320 320 320 320 321 323 324 323 322 321 319 317 316 316 318 319 318 317 318 321 323 323 322 322 322 321 321 321 320 320 320 321 322 323 322 323 326 325 322 322 326 329 328 329 328 326 328 331 330 328 328 328 330 329 327 327 329 331 329 328 330 331 330 330 329 329 328 328 328 329 329 329 329 329
318 318 318 316 315 314 314 315 316 317 318 318 318 319 320 320 322 323 322 321 320 318 316 315 315 316 317 317 316 319 322 322 322 321 319 319 319 319 317 316 315 315 318 320 322 322 322 324 326 325 323 325 328 329 329 327 326 327 328 328 329 328 328 330 330 329 330 331 331 331 330 329 329 329 329 330 330 330 329 329 329 329 329 329 330
319 319 319 318 316 315 314 314 316 317 317 318 318 318 319 320 321 322 322 320 319 317 315 314 314 315 314 313 315 318 321 320 318 315 313 314 316 316 315 313 313 315 318 320 321 321 322 323 324 326 326 326 327 328 328 328 328 329 328 328 329 329 330 330 329 330 330 329 329 332 333 332 332 330 330 330 330 331 330 330 330 330 330 329 329
320 320 319 319 318 316 315 315 315 316 316 317 317 318 318 319 320 321 321 320 317 316 314 312 313 314 311 312 313 315 316 315 313 312 312 313 315 315 314 313 315 317 319 319 319 319 320 321 322 324 324 325 325 326 327 327 328 329 328 328 327 328 329 329 329 330 329 329 330 331 331 332 334 332 331 331 330 330 331 330 331 330 330 330 329
321 320 319 320 319 318 317 316 316 316 316 316 316 317 317 318 319 319 319 318 316 314 312 311 313 312 310 311 311 311 312 313 313 314 313 314 315 315 313 314 317 318 317 317 317 317 317 319 320 321 322 322 323 323 324 324 325 326 327 327 326 327 328 327 328 329 329 329 329 329 330 331 333 330 330 331 330 330 330 330 330 330 330 330 330
321 320 320 320 320 319 318 316 316 316 316 316 316 316 317 317 317 318 318 317 315 313 311 311 312 310 309 309 309 310 314 314 313 313 313 315 315 314 313 314 316 316 316 317 317 317 317 318 319 320 320 320 320 321 321 321 321 322 324 325 326 326 326 327 328 328 328 329 328 328 329 331 331 329 330 331 330 329 329 329 329 329 329 329 329
319 320 319 320 321 320 319 317 316 317 316 316 316 316 316 316 316 317 317 316 314 312 311 311 312 309 307 307 307 309 311 311 311 311 312 313 314 314 315 314 315 316 317 317 317 317 317 317 318 319 319 319 319 319 319 319 319 319 320 322 323 324 325 325 326 327 327 327 328 327 327 328 328 329 330 330 331 331 330 330 330 329 329 329 329
318 319 319 319 321 320 319 318 317 316 316 315 315 315 316 316 316 316 316 315 313 312 311 311 311 310 307 307 307 307 308 308 309 311 312 313 313 315 316 315 316 317 317 318 317 316 316 315 316 317 317 318 318 318 317 317 316 316 317 318 320 321 322 323 323 324 324 325 325 326 326 327 327 328 329 329 330 330 329 329 330 329 329 329 329
316 318 318 319 320 321 320 318 317 316 316 316 315 315 315 315 314 315 315 314 313 312 311 311 311 310 309 308 307 307 307 308 310 311 312 312 313 314 316 316 316 317 317 316 313 313 312 311 310 310 311 312 313 313 312 312 312 312 312 314 315 317 318 320 320 320 321 322 322 323 324 325 326 327 327 327 328 328 328 328 330 329 328 329 328
311 314 317 319 320 320 320 319 317 316 315 315 315 315 315 315 314 314 315 314 313 312 312 312 311 311 310 310 309 308 307 308 309 311 312 313 313 313 316 317 316 317 317 313 309 309 308 307 307 306 306 306 306 306 306 305 306 306 307 309 310 312 313 315 316 317 318 319 319 320 321 322 324 325 324 325 326 327 327 327 327 327 327 327 328
308 309 313 318 319 320 319 318 317 316 315 315 315 315 315 314 313 313 314 314 314 312 313 312 312 312 312 310 311 311 310 308 309 311 312 313 312 313 316 317 316 317 317 312 307 306 306 307 308 306 305 305 304 304 303 303 303 304 305 306 307 308 310 310 311 312 314 315 316 317 318 319 320 322 322 322 324 325 325 325 326 325 325 326 327
307 308 312 316 318 319 319 319 318 315 315 315 315 315 314 314 312 311 312 313 314 313 313 313 312 313 313 312 312 312 312 309 308 309 310 311 310 312 315 317 317 317 316 312 307 306 307 308 309 307 305 305 304 303 303 303 303 303 304 305 305 306 307 308 309 309 310 312 313 313 315 316 316 317 318 319 320 322 323 323 324 323 324 325 325
309 309 312 316 318 320 320 320 318 316 316 315 315 315 314 313 312 310 310 312 313 313 314 314 313 312 313 313 312 312 313 311 309 307 308 308 308 310 313 316 316 316 315 312 308 308 309 309 310 309 306 305 305 304 304 303 303 304 305 305 305 306 306 307 307 307 307 308 309 310 311 312 313 313 314 315 316 318 320 321 321 321 322 323 323
311 311 313 316 318 320 320 320 318 317 317 316 316 315 314 314 311 310 310 310 311 312 313 313 314 314 313 314 314 313 313 312 310 309 307 306 306 307 309 312 312 312 312 311 309 310 311 311 310 310 308 306 305 305 304 303 303 304 305 305 305 306 306 306 307 306 306 306 306 307 308 309 309 310 311 312 313 314 316 317 318 319 320 321 321
312 313 315 317 319 320 320 319 318 317 317 316 315 315 314 313 312 311 311 311 311 312 313 314 314 314 314 314 315 315 315 314 311 310 309 307 306 306 307 308 308 308 309 310 310 311 312 312 311 310 310 307 305 305 305 304 303 304 305 304 304 305 305 306 306 306 306 306 305 305 306 307 307 308 308 309 310 311 313 314 315 316 316 318 319
310 313 315 317 320 320 319 319 318 317 317 316 315 315 315 314 313 312 312 311 312 313 314 315 315 315 315 316 316 317 317 316 313 311 310 309 307 306 306 307 307 307 308 310 311 312 312 312 311 311 310 308 306 305 305 304 303 304 305 304 304 305 305 306 306 306 306 306 305 305 305 306 306 306 307 307 308 308 309 311 312 314 314 315 315
310 310 312 315 318 320 320 320 318 318 317 316 315 315 315 315 314 313 312 311 312 313 314 315 315 316 316 316 317 318 318 316 313 311 310 310 309 307 306 306 307 308 308 309 310 311 312 313 312 311 311 309 307 306 305 305 304 304 304 305 305 305 305 305 305 306 305 305 305 305 305 305 305 305 306 306 306 307 308 308 309 311 313 313 313
310 310 310 311 314 317 319 320 319 319 318 316 315 315 315 315 315 315 314 312 311 312 313 314 315 315 316 316 317 317 317 315 313 311 311 311 311 309 307 307 307 308 308 308 309 311 312 313 312 312 311 309 307 306 306 305 305 304 304 304 304 304 305 304 304 304 304 304 304 304 305 305 305 305 305 305 306 306 307 307 308 308 310 311 312
309 309 309 310 311 314 315 318 318 318 318 317 316 315 315 315 315 315 315 314 313 312 312 314 314 315 315 316 317 317 316 314 312 312 311 311 311 311 309 307 307 308 308 309 309 310 312 313 313 312 311 310 307 306 306 305 305 304 304 304 303 304 304 304 304 303 303 303 304 304 304 304 304 304 305 305 305 305 306 306 307 307 308 309 310
308 308 308 308 310 311 312 313 315 316 317 318 317 317 316 316 315 316 316 315 315 313 313 313 313 314 314 315 316 316 316 314 312 311 311 311 312 312 311 309 308 308 308 308 309 309 311 312 312 312 311 310 308 306 306 306 305 305 305 304 303 303 303 303 303 303 302 303 303 303 304 304 304 304 304 304 304 304 305 305 306 306 306 307 308
307 307 307 308 309 309 309 310 311 313 315 316 317 318 318 318 317 316 316 316 316 315 315 314 313 313 314 314 316 315 315 314 313 312 312 311 312 312 313 311 309 308 308 308 309 309 310 312 312 312 311 310 307 306 306 306 305 305 304 303 302 302 303 302 302 302 302 302 302 303 303 304 304 304 304 304 304 304 304 305 305 305 306 306 306
307 307 307 307 308 308 308 308 308 309 310 311 314 315 317 318 318 318 317 317 317 316 316 316 315 314 314 314 314 314 314 314 313 312 312 312 312 313 313 312 310 309 309 308 309 309 311 312 312 312 311 309 307 306 306 306 305 304 303 302 302 302 302 302 302 301 301 301 301 302 302 303 303 304 304 304 304 304 304 304 304 304 304 305 305
306 306 306 307 308 307 307 308 307 308 307 307 308 310 311 314 316 317 318 318 318 317 317 317 316 316 315 314 314 313 314 314 313 313 313 313 312 313 314 314 312 311 310 309 309 310 311 312 312 311 310 308 307 306 306 305 305 304 303 302 302 302 302 301 301 301 300 300 301 301 301 302 302 303 304 304 304 304 304 303 304 304 304 304 304
306 306 307 308 308 307 307 307 307 307 307 307 306 306 306 307 309 312 314 317 318 318 317 317 317 317 317 316 316 314 314 314 314 314 314 313 313 313 313 314 313 312 311 310 310 310 311 311 311 311 309 307 306 306 306 305 305 304 303 302 302 301 301 301 301 300 300 300 300 301 301 301 301 301 302 303 303 303 303 303 303 303 303 303 303
306 306 307 307 307 307 307 307 307 307 307 307 307 305 305 304 304 305 307 311 314 317 318 318 317 317 317 317 317 316 316 315 315 315 315 314 314 313 314 314 314 312 311 311 310 310 311 311 311 311 309 307 306 306 306 305 304 303 302 301 301 301 301 300 300 300 300 300 300 300 300 300 300 300 301 301 302 302 302 302 302 302 303 303 303
306 305 306 306 306 307 307 306 306 306 306 306 307 306 306 305 304 303 303 304 307 311 315 317 318 318 318 318 318 317 317 316 316 315 315 315 314 314 314 314 314 312 311 311 311 311 311 311 311 310 308 306 306 306 305 304 303 302 301 301 300 300 299 299 299 299 299 299 299 299 299 300 300 300 300 300 300 301 300 301 301 301 301 302 302
305 305 305 305 305 306 306 306 306 306 306 306 306 306 306 306 305 304 303 303 302 303 307 312 316 318 318 318 318 318 318 318 317 316 315 315 314 314 314 313 312 311 311 311 311 311 311 311 311 309 307 306 306 305 304 303 302 301 301 300 299 298 297 296 296 296 297 298 298 298 299 299 299 299 300 300 300 300 300 300 300 301 301 301 301
304 304 304 304 304 305 306 306 305 305 305 305 304 305 304 304 304 303 303 302 301 301 302 304 309 313 317 318 318 318 318 318 318 317 315 315 315 314 314 313 312 310 311 311 311 311 311 311 310 308 306 306 305 305 303 303 302 301 300 299 297 295 294 294 294 295 295 296 296 297 297 298 298 298 298 298 299 299 300 300 300 300 300 300 300
304 303 304 303 303 304 305 305 305 305 305 305 305 304 304 304 303 303 302 301 300 301 301 302 303 307 311 315 317 317 317 318 318 317 316 315 315 314 314 313 312 311 311 311 311 311 311 310 308 307 307 306 305 304 303 302 301 300 299 297 295 293 293 293 294 294 294 294 295 295 296 295 295 294 294 294 295 296 297 298 299 299 299 299 299
303 303 303 303 303 304 305 305 305 305 304 304 304 304 304 305 304 304 303 302 301 300 300 301 302 304 307 311 314 316 316 317 317 316 316 316 315 314 314 313 312 311 311 311 310 311 311 309 308 307 306 305 304 304 303 302 300 299 297 294 293 292 293 293 294 294 294 294 294 295 295 293 293 293 293 293 293 293 294 295 296 297 298 299 299
303 304 303 303 304 305 306 305 305 305 304 304 304 304 304 304 304 304 303 302 302 301 300 300 301 302 304 307 312 315 316 316 316 316 315 315 314 314 312 312 311 310 310 310 310 310 310 308 307 306 305 304 303 302 301 300 298 296 294 292 292 293 293 293 294 294 294 294 294 294 294 294 293 294 294 294 293 293 293 294 294 295 295 296 297
303 303 303 303 303 304 305 305 305 304 304 303 303 303 304 304 304 303 303 302 301 301 301 301 300 300 302 305 310 314 315 316 316 315 315 314 313 312 311 310 310 309 309 310 310 309 308 307 306 304 303 303 302 301 300 297 295 294 292 292 292 293 293 294 294 294 294 294 294 294 294 294 294 293 293 294 294 294 294 294 294 294 294 294 295
303 303 303 303 303 304 304 304 304 303 303 303 302 302 303 303 303 302 302 301 302 302 302 302 301 300 301 303 308 312 315 315 315 315 314 313 312 311 310 309 309 309 309 310 309 308 307 306 305 303 303 302 301 300 298 295 294 293 293 293 292 292 293 293 293 293 293 293 293 293 294 294 294 293 293 294 294 294 294 294 294 294 294 294 294
304 303 303 304 304 304 304 304 303 303 303 302 302 302 302 302 301 302 301 301 302 302 303 302 301 301 301 302 306 310 314 315 314 314 314 312 311 310 309 309 308 308 308 309 308 307 306 305 304 303 303 301 300 298 296 294 294 294 293 292 292 292 292 292 292 292 292 292 292 293 293 293 293 293 293 294 294 294 294 294 294 294 295 295 295
304 303 304 304 304 304 304 304 303 303 302 302 302 302 302 301 301 301 301 301 302 302 303 303 302 301 301 303 307 310 313 314 314 314 313 312 311 309 309 308 308 308 308 307 307 306 305 304 303 303 302 300 298 296 294 294 295 294 293 292 292 291 292 292 292 292 292 292 292 292 292 293 293 293 293 293 292 292 292 293 293 293 294 294 295
303 303 304 304 304 303 303 303 303 302 302 302 302 302 302 302 301 301 301 301 302 302 303 303 303 303 303 305 307 310 312 313 313 313 312 311 310 309 308 308 307 307 306 307 306 305 304 303 303 302 301 299 297 295 294 295 295 294 293 293 292 292 292 292 292 292 291 291 292 292 292 293 293 293 293 292 291 291 291 292 292 292 292 293 293
303 302 302 302 302 302 302 302 302 302 302 302 302 301 302 301 301 301 301 301 302 302 303 303 303 304 304 305 307 309 311 312 312 312 312 311 309 309 308 307 307 306 305 306 305 304 304 304 303 301 300 298 295 294 295 295 294 294 293 293 292 293 293 293 292 292 292 292 292 291 291 292 292 293 292 291 291 290 290 291 291 291 292 292 292
302 302 302 302 302 302 302 302 301 301 302 302 302 301 301 301 301 301 301 301 302 302 303 303 303 304 304 305 306 308 310 311 312 312 312 311 309 308 307 306 306 305 305 305 305 304 304 303 302 300 298 296 295 295 295 294 294 294 294 293 293 293 293 293 293 293 292 292 292 291 291 291 292 292 292 291 290 290 290 291 291 291 291 291 291
301 302 302 302 302 302 301 301 302 302 302 302 302 301 301 301 301 301 301 302 302 303 303 303 303 303 304 305 306 307 309 311 311 311 312 311 309 307 306 305 305 304 304 304 304 304 302 301 301 299 297 296 296 296 295 295 294 294 294 293 293 293 293 293 293 293 293 293 292 292 291 291 291 291 291 290 290 290 290 290 290 290 291 291 291
301 301 301 301 301 301 301 302 302 302 302 301 301 301 301 301 301 301 302 302 302 303 303 303 303 303 303 304 306 307 308 310 311 311 311 310 308 307 305 304 304 305 305 304 303 303 301 300 299 298 297 297 297 297 296 295 294 295 295 294 292 293 294 294 293 293 293 293 293 292 292 292 291 291 290 289 289 289 289 289 290 290 290 290 290
300 300 300 300 301 301 301 301 301 301 301 301 301 301 301 301 301 301 302 302 302 302 302 302 303 303 304 304 305 307 308 310 310 310 310 309 307 306 305 304 304 304 304 303 302 302 301 300 299 298 297 297 297 296 295 295 295 295 295 294 293 292 293 293 293 293 293 293 293 292 292 292 291 290 290 289 289 288 288 288 289 289 289 289 289
300 299 299 300 300 300 301 300 300 301 301 301 301 301 301 301 301 301 302 302 302 302 302 303 303 303 304 305 306 307 308 309 310 310 309 307 306 305 304 303 303 303 303 302 302 300 299 298 298 298 298 297 297 296 295 295 295 295 294 293 292 292 291 291 292 292 293 293 292 292 292 291 290 290 289 288 288 287 287 287 288 288 288 288 288
299 299 299 300 300 300 300 300 300 300 300 300 300 301 301 301 301 302 301 302 302 302 303 303 303 303 304 305 306 307 308 309 309 308 307 305 303 302 302 302 302 303 303 302 300 299 298 298 298 298 298 297 296 296 296 295 294 293 292 292 291 291 291 291 291 292 292 292 292 291 291 290 289 288 288 287 287 287 287 287 288 287 287 288 288
299 299 300 300 300 300 300 301 300 300 300 300 300 300 301 301 301 301 301 302 302 303 303 303 303 303 304 305 306 307 308 308 307 305 304 303 301 301 301 301 302 302 301 300 299 298 298 298 298 298 297 297 296 295 295 294 292 292 291 291 291 291 291 290 290 291 291 291 291 290 290 288 288 287 287 287 287 287 287 288 288 288 287 287 288
300 300 300 299 300 300 300 300 300 300 300 300 300 301 301 301 301 301 301 302 303 303 304 303 303 303 304 305 307 307 307 306 305 304 303 302 302 302 302 302 301 300 299 299 299 299 299 298 298 297 297 296 295 293 292 292 291 291 291 290 290 290 290 290 290 290 290 290 289 288 288 287 287 287 287 287 288 288 288 288 288 288 288 288 289
300 300 300 300 300 300 300 300 301 301 301 301 301 301 301 301 301 301 302 302 303 304 304 304 304 304 304 306 306 305 304 304 303 303 303 302 301 301 300 301 301 301 301 300 299 299 298 297 296 296 295 295 294 292 292 292 291 290 290 290 290 291 290 290 289 289 289 288 288 288 287 287 288 287 288 288 288 288 288 288 288 288 288 289 289
300 300 300 300 300 300 301 301 301 301 302 302 302 302 302 302 302 302 303 303 304 304 304 304 304 305 305 305 305 303 302 302 302 302 301 300 299 298 299 301 302 301 300 298 297 296 295 294 295 295 295 294 294 293 293 292 291 291 291 291 291 291 290 289 289 289 288 288 288 288 288 288 288 288 288 288 288 289 289 289 289 289 289 290 290
300 300 300 300 300 301 301 301 302 302 302 302 302 302 302 302 302 303 304 304 305 305 304 304 305 305 305 304 303 302 301 301 301 301 300 300 300 300 301 301 301 299 297 295 294 293 293 294 295 295 294 294 293 293 292 291 291 290 290 290 290 290 289 289 288 288 287 287 288 288 288 288 288 288 289 289 289 289 289 289 289 290 290 290 290
300 299 300 300 300 300 301 301 302 302 302 302 302 302 302 303 303 304 304 305 305 305 304 304 305 305 304 303 302 301 302 301 300 298 298 299 299 300 300 299 298 296 295 294 293 293 293 293 294 294 294 293 293 292 291 290 290 290 289 288 288 288 288 288 287 287 287 287 288 288 288 288 289 289 289 289 289 289 289 289 289 289 289 290 290
299 299 300 300 300 300 301 301 301 301 302 302 302 303 303 304 304 304 305 304 305 304 304 304 305 304 303 302 301 301 301 300 298 297 296 297 297 297 298 297 296 294 294 294 294 294 293 293 292 292 292 292 292 291 290 290 290 289 289 288 287 287 286 286 287 286 287 287 288 288 288 289 289 289 289 289 289 289 289 289 289 289 289 289 289
299 299 300 300 300 300 300 301 301 301 302 302 303 303 303 303 304 304 304 304 304 304 304 304 304 303 302 301 300 299 298 298 297 297 296 297 297 296 296 295 294 293 294 294 294 293 293 292 292 291 290 290 291 290 290 290 289 289 289 288 287 287 286 286 286 287 287 288 288 288 288 289 289 289 289 289 289 289 288 288 288 289 289 289 289
Wind_Speed
3 5 9 15 19 20 20 20 21 22 23 24 23 23 22 22 21 22 21 20 18 16 15 13 13 13 12 11 10 10 9 8 7 5 4 4 4 4 4 4 3 3 4 4 5 7 6 4 4 3 2 1 2 2 4 5 7 8 7 8 11 10 10 8 6 6 5 6 6 7 10 11 11 11 12 13 15 17 19 21 22 22 22 20 19
4 6 8 14 19 21 20 20 22 23 25 25 25 24 23 22 22 23 22 21 19 16 14 13 13 13 12 12 11 11 10 8 7 5 4 5 5 5 5 4 4 3 4 4 5 8 9 8 6 5 4 4 3 4 4 1 3 6 6 7 8 8 8 7 6 5 3 3 3 3 6 8 10 12 13 14 15 16 18 20 21 23 22 21 20
8 8 9 13 18 20 21 21 23 25 26 26 25 25 24 23 23 24 23 22 19 16 13 13 12 11 10 10 11 11 10 8 7 6 6 6 6 6 5 5 5 6 7 6 7 9 10 11 11 9 7 6 6 7 8 5 2 2 3 5 7 7 6 5 4 4 4 3 2 1 1 2 5 7 9 13 15 16 17 18 19 21 21 21 21
11 10 9 11 14 18 21 23 24 25 26 27 26 26 26 25 24 25 25 23 20 17 14 13 12 11 9 9 10 9 9 8 7 7 7 7 6 6 6 6 8 8 8 8 8 8 9 11 13 12 11 10 10 10 9 7 5 3 3 4 5 5 4 3 2 3 4 4 2 1 0 0 2 2 3 7 8 10 14 15 16 17 16 17 19
11 11 10 12 15 19 22 24 26 26 27 29 30 29 28 27 26 27 26 24 21 19 17 15 15 13 11 11 9 8 9 9 8 7 6 6 6 6 7 8 9 8 8 8 8 8 8 9 11 13 13 12 13 13 12 10 8 6 4 4 3 3 3 3 3 2 3 5 3 2 1 1 2 1 2 3 2 2 5 7 10 11 10 12 14
10 12 12 13 16 18 20 23 27 29 30 32 32 31 30 28 27 28 27 25 23 21 19 18 17 16 14 14 12 10 9 9 8 7 7 6 6 6 7 8 7 7 7 7 8 9 9 9 10 11 11 11 12 13 13 12 12 11 8 6 6 5 4 5 5 3 3 3 3 3 3 3 2 2 2 2 2 2 1 2 1 3 4 5 7
9 11 12 13 15 16 18 23 28 31 32 32 32 31 30 29 28 29 28 26 25 23 22 20 20 18 16 16 14 13 11 9 8 7 7 7 6 7 7 7 7 7 7 7 7 8 9 9 10 10 11 11 11 11 12 12 12 12 11 9 8 7 6 7 6 4 4 4 2 1 2 4 4 4 3 3 3 1 1 1 1 1 1 1 2
10 11 12 13 14 18 21 24 29 33 31 31 32 32 31 30 29 29 29 28 27 26 24 23 22 20 18 16 15 14 11 9 9 9 8 8 7 7 7 8 8 7 7 7 7 7 9 10 10 11 11 11 10 11 11 11 11 11 11 10 9 8 7 7 6 5 5 4 4 3 2 2 2 3 3 3 3 3 3 4 2 2 3 2 1
10 12 12 13 16 20 21 20 24 30 30 31 33 32 32 31 29 30 30 29 28 28 26 24 23 20 19 17 16 15 12 10 10 11 10 9 9 8 8 8 8 7 7 7 8 10 12 13 13 13 12 12 11 11 11 10 10 10 11 11 11 11 9 8 7 7 6 5 5 4 4 4 2 1 2 2 3 3 4 4 4 6 6 2 2
9 10 12 13 15 17 16 15 20 26 28 29 31 31 32 31 31 32 32 31 31 30 28 27 24 22 20 18 18 16 13 11 12 12 12 11 11 10 9 9 8 7 7 8 11 13 14 14 15 15 15 14 14 13 12 11 11 11 11 11 11 12 11 11 10 8 7 6 6 5 5 4 3 2 4 5 4 3 4 4 6 7 6 4 4
8 9 10 11 10 11 14 15 19 23 24 26 29 30 32 32 31 32 33 33 33 31 30 29 26 24 22 20 19 18 16 13 14 14 14 13 12 12 11 10 9 8 8 9 12 13 13 13 15 16 16 16 16 16 15 14 13 13 12 12 11 12 12 11 11 10 9 9 8 7 6 5 4 3 5 6 5 5 5 5 7 8 8 8 7
6 7 8 9 9 12 15 17 19 22 24 26 29 31 32 31 30 31 33 35 34 33 32 31 28 26 24 22 20 20 19 17 16 16 15 15 14 14 13 12 11 9 9 10 11 11 11 12 13 14 15 16 16 17 17 16 15 15 14 14 13 13 12 11 11 11 10 10 9 8 7 6 5 5 5 6 5 6 7 6 7 8 8 8 8
4 4 5 7 8 10 13 14 16 19 22 25 28 30 31 31 32 32 34 35 35 34 34 32 31 28 26 24 22 21 21 21 19 18 17 16 15 15 15 14 14 12 11 11 11 10 9 10 11 12 13 14 14 15 16 16 16 16 16 16 15 14 13 13 12 11 11 10 9 7 7 6 5 5 5 6 6 6 7 7 8 9 8 9 10
2 1 3 5 6 7 9 9 11 13 15 20 25 28 30 32 33 33 33 34 35 35 35 34 33 30 27 25 24 22 22 23 22 21 19 17 16 16 15 15 15 15 14 13 12 11 9 8 9 10 11 11 12 13 14 15 15 16 16 16 15 14 13 13 12 11 11 10 9 7 7 6 5 5 6 6 6 6 6 7 8 9 9 11 11
6 3 3 3 5 7 8 8 9 10 12 17 22 25 28 31 30 29 29 31 33 34 35 35 34 32 29 27 26 24 24 24 24 23 21 19 17 17 15 14 14 14 14 13 13 11 10 8 8 8 9 9 9 9 11 12 13 14 14 14 14 12 12 11 10 10 10 9 9 8 6 6 5 5 5 5 6 6 6 7 8 7 8 8 9
8 6 5 4 4 6 9 10 10 11 14 18 22 25 28 29 27 26 26 28 30 31 32 32 32 31 29 28 27 26 25 25 25 24 22 20 18 17 16 14 14 14 15 14 13 12 10 9 8 7 7 8 7 7 8 8 10 12 12 12 11 10 10 9 8 8 8 7 7 6 5 4 5 4 4 4 4 4 5 6 7 7 7 6 6
10 9 8 6 4 4 6 10 12 13 15 19 22 26 28 28 25 23 23 25 28 29 30 30 29 28 27 27 26 26 26 26 27 25 23 21 19 18 17 16 15 15 15 15 14 13 11 10 9 8 8 7 7 6 6 6 7 9 10 10 9 8 8 8 7 6 6 5 5 5 4 3 4 3 3 3 3 3 3 4 5 7 7 6 6
11 12 11 10 9 7 3 4 8 11 14 17 20 23 25 27 25 22 22 25 26 27 28 29 29 29 29 29 28 27 27 27 28 26 24 23 21 20 19 18 17 17 16 16 15 14 13 11 10 9 8 7 6 5 5 5 6 7 8 8 8 7 7 7 6 6 5 5 4 5 4 3 3 3 2 2 2 2 2 3 4 5 6 7 8
11 11 11 10 11 12 10 7 4 5 9 12 16 19 21 25 25 24 24 25 26 26 26 27 29 31 32 33 31 29 28 29 29 28 26 25 24 22 22 21 19 18 18 17 16 15 14 13 12 10 9 8 6 5 4 4 5 6 7 7 7 6 6 6 5 5 5 4 4 4 4 3 3 3 2 2 2 1 2 2 3 4 6 8 9
9 9 10 10 12 15 16 13 12 8 4 5 8 12 15 20 23 23 23 23 24 25 25 25 28 30 32 32 30 29 29 30 30 30 29 27 26 25 24 23 21 20 20 19 18 17 16 15 14 12 11 9 7 6 4 3 3 4 5 5 6 6 5 5 5 4 4 4 3 3 3 2 3 2 2 2 2 2 2 2 3 4 6 7 9
8 9 9 9 11 15 16 16 19 19 14 8 4 2 6 11 15 18 20 21 22 23 24 25 28 30 30 30 30 30 32 32 33 33 32 31 29 27 26 25 24 23 22 21 20 19 18 17 16 15 13 11 9 8 6 5 3 3 4 4 5 5 5 5 5 5 5 4 4 3 3 3 3 2 2 2 2 2 2 2 3 4 6 7 8
7 7 8 9 11 13 14 16 20 22 21 19 15 10 5 3 7 11 16 18 20 21 24 26 28 29 30 31 32 34 34 34 34 35 35 34 32 30 28 27 26 26 25 24 23 21 20 19 18 17 15 13 11 9 8 7 5 4 4 4 4 4 5 5 6 6 6 6 6 5 5 4 4 4 4 4 4 3 3 3 3 4 6 7 8
6 6 7 8 9 11 13 15 17 18 20 22 22 20 17 12 7 4 8 11 14 16 20 24 27 29 30 32 34 36 37 35 34 35 36 36 35 33 31 29 28 28 27 26 25 23 22 21 21 19 17 14 12 10 9 8 6 6 5 4 4 4 4 4 5 6 7 8 8 7 7 6 6 6 6 6 5 5 4 4 5 5 6 8 8
5 5 5 6 8 10 12 13 14 14 15 17 19 21 21 19 15 11 7 4 6 11 15 19 23 27 29 30 32 36 38 37 35 35 36 37 36 34 33 31 30 29 29 28 27 24 23 23 22 20 18 16 14 12 10 8 7 6 6 5 4 3 3 3 4 6 7 8 8 9 9 8 8 8 8 7 7 7 6 6 7 6 6 8 8
6 6 6 7 8 9 10 11 11 11 12 13 15 17 18 19 18 18 16 13 8 5 9 14 20 26 28 29 31 33 36 37 36 35 35 35 35 34 33 33 32 31 30 30 28 26 25 25 23 21 19 17 15 12 10 9 7 6 5 3 2 2 3 4 5 6 7 7 8 9 9 9 9 9 9 9 8 9 9 9 9 9 8 8 8
5 6 6 7 7 8 9 10 10 11 11 11 11 11 12 13 15 17 18 17 15 10 4 7 15 21 24 27 29 31 33 35 35 34 33 33 33 33 33 33 33 33 32 31 30 29 27 26 24 22 19 17 14 12 11 9 7 5 2 0 2 4 6 7 8 8 8 8 9 9 10 10 10 10 10 10 10 11 11 11 11 11 11 10 10
3 4 5 5 6 7 9 10 11 11 12 11 11 10 10 10 11 13 15 17 17 15 11 6 6 12 17 22 26 29 31 32 33 32 32 31 31 31 32 33 33 30 29 30 31 30 29 27 24 21 19 17 15 13 11 9 6 4 1 2 5 7 8 9 10 10 10 10 10 10 10 10 11 11 12 12 12 12 12 12 12 12 12 12 12
2 3 4 5 5 5 7 8 9 10 11 12 13 14 15 16 17 18 18 19 20 19 17 14 10 7 11 16 22 26 29 31 31 30 29 29 30 31 31 32 32 29 27 30 33 32 29 27 24 21 19 16 15 13 11 8 5 2 1 3 6 7 7 8 9 10 10 11 11 10 11 11 11 12 13 14 14 14 14 14 14 14 14 15 14
3 3 3 3 3 4 5 6 7 8 9 10 10 11 13 15 17 20 21 22 22 22 21 19 16 12 11 12 16 21 25 28 30 29 28 28 29 30 30 31 32 31 31 33 33 30 28 26 23 21 19 17 16 14 11 8 5 3 2 3 5 5 5 7 8 9 10 11 11 11 12 13 13 15 16 17 17 17 17 18 17 15 16 16 17
3 4 3 3 3 4 4 5 6 8 9 9 9 10 11 12 13 16 19 21 21 22 22 21 19 17 15 13 12 15 19 23 27 28 29 29 29 29 29 30 32 33 33 34 33 30 29 28 25 22 20 18 16 13 10 8 5 3 2 2 2 3 5 6 7 8 10 11 12 12 13 16 17 17 16 16 17 18 19 20 20 19 18 18 18
4 4 4 4 5 5 7 8 9 9 10 10 10 11 12 12 13 15 16 18 20 21 21 21 21 20 19 16 13 12 13 17 22 25 27 28 28 28 28 30 32 32 33 34 33 32 31 29 25 23 20 18 14 11 9 7 5 3 1 0 2 3 5 6 7 8 9 11 12 13 14 16 17 17 16 17 18 18 18 19 20 21 21 21 21
4 5 5 6 6 7 8 9 10 10 10 11 11 12 12 12 13 14 16 18 20 20 20 20 21 21 21 19 15 12 11 14 18 22 24 25 26 27 27 30 31 31 32 33 33 33 31 28 25 22 19 16 13 11 9 6 4 2 1 1 2 3 4 5 7 8 10 11 13 14 14 15 17 18 19 17 17 17 17 19 20 21 22 23 24
3 4 5 6 7 7 8 9 10 11 11 12 12 13 13 14 15 15 16 18 18 17 18 20 21 21 20 20 18 14 12 12 15 18 22 23 25 26 27 29 31 31 33 34 34 33 30 27 24 21 18 16 14 12 9 7 4 2 2 2 2 3 5 6 8 9 10 12 13 14 15 15 16 18 18 16 16 16 17 18 19 20 21 21 23
2 2 3 5 6 7 8 10 12 13 14 15 15 15 16 16 17 18 18 19 18 16 16 19 21 21 20 20 19 16 14 12 13 16 19 22 23 25 27 28 30 32 35 36 35 32 29 27 24 20 17 16 14 12 10 6 3 2 3 3 3 5 6 7 9 11 12 13 14 15 15 16 16 17 16 16 16 16 17 18 18 18 18 19 20
4 3 4 5 7 9 10 11 13 14 16 17 17 17 17 16 17 18 18 19 18 16 15 17 20 22 20 19 18 16 14 12 12 15 19 21 22 25 26 28 32 35 37 36 34 32 29 26 22 19 17 16 14 11 8 5 3 3 4 5 5 7 8 9 11 13 13 14 15 16 16 17 17 17 17 18 18 17 18 19 19 20 20 20 20
6 5 5 7 9 11 13 14 15 16 16 17 17 18 17 16 16 17 18 17 16 15 15 17 19 21 19 18 16 15 14 12 12 16 19 21 23 25 27 31 34 35 36 35 33 31 29 25 21 19 18 16 13 10 7 5 4 4 5 6 7 8 9 10 12 14 15 15 15 16 17 17 18 18 18 20 21 20 20 20 21 22 22 21 21
8 8 10 12 15 16 17 18 18 18 18 18 19 19 17 15 15 16 16 15 14 14 16 17 18 19 18 17 16 14 13 13 14 17 20 22 24 26 30 33 35 35 35 35 34 31 27 24 22 21 18 15 12 9 7 6 6 6 7 8 8 9 10 12 14 16 16 15 17 20 21 19 19 19 19 21 22 22 22 22 23 24 24 24 23
10 12 13 16 18 19 19 18 18 19 20 21 21 21 18 15 15 16 16 15 13 14 16 17 17 17 17 17 16 14 13 14 15 18 22 24 25 27 30 33 36 37 37 37 34 30 27 24 22 20 16 11 9 8 7 7 7 7 8 10 10 9 11 13 14 14 15 15 18 23 25 23 21 20 21 23 23 23 23 23 24 25 25 25 23
13 14 15 17 20 20 19 19 18 20 22 23 22 20 18 16 16 16 16 15 15 16 17 16 17 17 17 17 16 15 14 15 17 20 23 25 26 28 30 32 33 33 32 31 31 29 27 25 21 17 13 9 6 7 8 9 8 8 10 12 11 10 12 13 13 14 15 15 17 20 23 24 23 22 22 22 22 22 23 24 25 26 27 26 23
15 15 17 19 20 19 19 19 20 22 24 23 22 19 17 17 18 17 15 16 18 19 18 17 18 18 18 18 17 15 15 16 17 21 24 25 26 28 30 32 33 32 30 29 28 26 25 22 17 13 11 9 7 7 9 9 9 10 13 14 13 12 13 13 14 14 16 17 18 18 19 21 22 22 23 23 23 23 24 25 26 26 27 26 24
16 17 18 18 18 18 19 20 23 24 25 25 23 19 17 18 18 16 17 21 23 21 19 19 19 19 18 18 16 15 15 16 17 21 24 25 26 30 33 34 34 34 32 30 27 23 19 17 14 12 11 10 9 8 8 8 9 12 15 17 16 14 14 14 15 16 17 19 19 19 20 21 22 23 23 24 25 26 27 27 27 28 29 29 27
17 18 18 18 17 18 19 22 25 26 25 26 23 19 18 19 18 18 23 26 23 20 19 19 19 19 18 17 16 15 15 16 18 22 25 26 27 30 33 34 34 33 31 29 25 20 15 12 12 13 11 10 9 8 8 9 12 14 16 16 16 16 16 16 15 16 18 19 20 22 24 24 23 23 25 27 29 30 30 30 30 31 32 32 32
15 16 17 17 17 18 19 21 23 24 25 25 22 20 19 19 20 24 28 26 20 18 19 19 19 19 18 17 16 15 15 17 20 22 23 24 25 27 29 31 31 31 29 26 21 16 13 13 14 14 10 9 9 9 10 11 12 12 12 13 14 15 16 16 16 17 19 21 23 24 24 23 24 26 29 31 31 32 31 30 31 32 33 33 33
16 17 17 17 18 19 19 20 20 21 23 23 22 20 20 20 24 29 29 24 20 19 19 18 18 18 17 16 15 13 14 18 21 22 21 21 23 26 28 28 28 25 22 20 18 16 15 14 12 10 7 6 6 7 8 8 9 10 11 13 15 18 20 20 20 20 21 22 24 24 24 26 28 30 31 32 32 31 30 30 30 31 31 30 29
18 18 17 17 19 19 19 19 19 21 22 22 22 21 20 22 26 28 25 23 21 20 18 17 16 16 16 15 12 12 16 19 22 24 25 27 27 28 27 26 23 21 19 17 17 16 14 10 6 4 3 2 4 6 7 8 10 12 15 17 20 22 24 24 23 21 20 22 24 25 27 28 29 29 29 29 28 27 26 27 28 29 29 27 26
19 19 18 18 19 19 18 19 20 21 21 22 22 21 22 24 25 25 23 22 22 22 19 17 15 15 15 12 11 13 16 20 23 26 29 31 30 28 25 21 18 18 17 16 14 13 10 7 5 2 0 2 4 6 7 10 13 15 18 20 22 22 21 21 20 19 20 22 24 24 25 26 26 26 25 25 24 24 24 25 26 26 25 24 23
20 20 20 19 18 19 19 19 20 20 19 20 21 22 23 24 24 23 22 23 23 23 20 17 15 14 12 11 14 17 22 26 29 31 32 31 29 28 25 22 19 18 16 14 12 10 9 7 4 2 1 2 4 5 7 9 12 15 16 17 16 16 16 17 17 17 19 21 22 22 23 23 22 22 22 22 23 23 23 22 22 21 20 21 21
21 22 20 19 19 20 20 21 22 21 20 21 23 24 24 24 23 23 23 24 24 23 20 17 14 12 12 15 19 25 30 31 32 33 32 29 27 26 24 23 22 21 19 17 14 11 8 6 4 2 1 2 4 5 7 10 13 14 14 13 12 12 14 15 16 17 19 20 20 20 20 19 19 19 19 20 20 20 20 20 20 20 20 21 22
21 21 20 19 20 22 23 24 25 24 24 25 26 25 23 23 24 23 23 24 23 22 20 17 14 14 17 21 25 30 35 35 34 34 31 27 25 23 21 21 22 22 21 19 16 13 9 7 5 4 3 3 4 5 8 11 13 13 13 13 12 12 13 13 14 16 18 18 17 17 17 17 18 19 19 19 20 20 20 20 20 21 21 21 21
23 23 23 23 24 25 25 26 26 27 27 26 26 25 25 24 24 23 23 23 23 22 19 17 16 18 23 26 28 31 35 35 34 32 29 26 24 21 19 20 21 20 18 15 13 11 9 7 6 6 5 4 5 6 9 10 11 11 12 12 11 11 11 12 14 15 15 15 15 16 17 18 19 19 19 20 20 21 21 21 21 21 21 21 21
25 24 25 27 26 25 25 26 27 26 25 25 26 26 24 22 21 21 22 23 22 20 18 19 21 24 28 30 30 31 33 32 30 29 27 25 23 20 19 20 21 19 15 12 10 10 9 7 6 7 6 5 6 7 8 9 9 11 12 12 11 10 10 12 14 13 12 13 15 17 18 18 19 20 20 21 21 22 22 22 22 21 21 21 21
Wind_Direction
183 183 197 198 204 206 202 200 199 196 195 193 189 188 186 183 182 183 183 185 184 177 171 168 163 161 159 157 157 156 155 152 146 143 134 124 116 104 91 82 74 64 59 52 53 59 65 77 90 94 92 195 230 209 203 229 232 209 200 217 226 227 223 224 238 251 268 279 274 276 282 278 268 261 256 254 254 254 256 257 259 261 263 263 262
193 198 188 191 200 203 203 201 199 198 196 194 191 189 187 184 184 184 183 185 187 183 178 177 172 166 163 161 162 159 157 154 149 148 144 135 125 113 103 89 80 83 83 80 78 74 75 79 84 97 98 103 113 114 123 151 233 207 196 200 204 204 204 208 222 235 243 247 254 274 284 283 275 268 262 258 256 254 255 258 260 260 261 262 263
210 205 187 188 194 197 201 202 202 201 198 195 192 189 185 184 185 186 185 186 189 188 186 184 177 174 172 167 164 161 160 161 154 142 130 127 120 107 93 81 83 98 103 100 96 89 83 81 83 93 98 102 102 97 101 102 118 160 170 172 166 168 180 187 199 212 213 209 219 248 287 300 280 274 268 261 257 253 255 257 258 260 260 262 263
210 206 191 185 187 192 198 201 201 201 200 197 193 189 185 185 188 188 187 188 188 188 190 187 178 176 173 168 168 164 160 158 147 132 124 121 115 101 87 87 93 101 103 96 92 90 86 84 86 92 95 97 98 94 95 99 108 117 120 131 136 147 156 147 151 177 188 191 198 211 85 42 252 284 297 275 262 252 254 255 255 258 257 257 261
205 202 192 186 190 193 195 197 198 199 202 199 194 191 187 187 191 190 188 188 187 188 190 185 178 176 170 165 169 162 157 157 151 142 136 128 115 102 97 103 105 101 96 86 86 88 88 91 92 94 94 92 93 91 89 88 90 92 88 91 101 137 161 144 120 138 184 196 204 193 182 230 224 357 324 291 298 276 260 251 251 256 253 251 257
211 205 197 193 195 191 187 191 196 200 203 200 196 193 189 190 193 191 190 189 187 189 190 184 179 179 173 169 170 166 166 172 170 159 148 137 120 107 108 114 112 102 94 88 87 88 91 98 101 102 100 95 93 91 88 84 80 77 74 78 79 92 126 121 103 106 144 169 202 212 240 268 259 301 305 273 313 340 117 144 214 259 248 243 251
223 216 207 201 195 187 186 191 195 200 203 199 196 194 190 192 194 192 191 190 188 189 189 185 181 182 182 179 180 180 180 180 175 162 152 146 128 112 110 117 114 103 98 92 87 88 94 100 103 107 106 102 99 95 90 84 79 76 74 76 73 72 87 90 80 78 97 96 98 171 248 271 259 267 272 270 289 281 140 97 32 70 138 227 253
221 221 214 206 197 191 193 194 195 200 200 197 196 194 191 193 195 194 192 192 191 190 190 187 184 184 186 189 191 191 188 181 174 167 161 154 141 125 114 116 117 107 100 91 84 87 96 101 103 107 106 104 102 97 92 87 82 80 76 75 75 70 72 79 73 58 62 58 40 46 22 340 267 259 265 274 283 270 273 287 292 330 326 299 243
231 225 217 207 202 199 196 192 194 199 199 196 196 194 192 194 197 196 194 194 194 193 192 190 188 187 189 194 199 199 196 186 178 174 168 162 154 144 129 124 122 113 102 90 90 97 100 99 97 97 98 97 98 96 93 89 85 82 78 76 77 77 74 77 75 61 56 50 30 27 19 4 350 358 359 323 303 281 282 287 293 312 323 315 267
254 241 229 216 206 199 190 183 189 199 200 197 196 194 192 195 198 197 195 196 197 196 194 193 193 193 194 199 205 207 205 194 184 180 174 170 164 157 148 140 134 124 112 99 102 107 103 95 89 88 90 92 92 90 86 82 77 76 77 77 78 77 74 74 74 67 61 54 41 34 23 6 350 8 10 348 324 292 282 288 293 299 310 311 304
260 247 235 221 204 188 183 182 188 196 197 195 196 194 193 196 198 197 197 198 199 198 198 197 196 197 199 202 208 215 215 204 193 187 181 177 173 167 162 155 149 141 128 116 115 114 105 92 85 84 87 89 87 84 80 76 74 73 73 73 73 71 69 69 68 63 60 55 49 45 38 28 17 6 358 347 329 307 297 288 288 293 294 295 298
263 239 221 203 189 181 183 183 182 187 191 192 195 194 194 197 199 199 199 201 200 199 200 201 200 201 203 205 210 218 221 215 206 198 190 183 180 175 170 166 162 156 144 134 130 124 110 97 88 84 84 86 86 83 78 75 74 75 74 73 71 68 66 66 61 58 56 52 48 45 42 40 30 16 0 348 334 318 308 292 293 302 297 291 297
277 225 202 187 179 179 183 180 174 179 186 189 192 193 193 198 202 202 201 202 202 201 202 203 204 204 205 208 212 218 224 223 217 210 201 192 187 182 176 173 171 167 159 151 146 138 122 107 96 88 85 86 87 84 78 73 73 77 78 77 76 72 70 70 66 61 58 54 50 45 40 37 27 14 360 347 341 326 313 298 296 302 297 291 295
338 146 172 175 167 167 175 175 169 172 177 182 189 192 195 200 204 204 203 203 203 203 203 205 207 208 208 211 214 218 224 226 224 218 211 203 196 192 186 181 178 174 166 161 157 153 141 123 108 95 89 87 86 84 78 72 73 79 81 79 78 77 74 74 72 66 61 55 51 47 42 38 24 12 2 352 348 333 321 314 304 297 291 288 288
16 53 99 131 145 151 158 163 165 166 171 179 188 194 198 203 207 205 203 204 204 204 205 205 208 210 212 215 218 222 227 229 228 225 219 213 205 201 196 189 184 177 170 166 164 164 157 142 125 110 101 94 87 83 79 72 71 80 83 79 78 77 74 73 71 67 62 56 50 46 44 39 28 17 8 358 354 339 322 319 313 303 295 291 289
23 35 57 75 117 142 150 157 165 170 176 185 191 196 201 207 211 209 205 206 207 207 207 208 210 213 215 218 222 227 231 232 232 230 226 221 214 210 205 198 190 180 173 171 170 171 168 159 144 132 122 114 105 94 88 79 71 79 85 83 81 80 77 76 75 70 64 60 53 47 46 42 30 22 15 4 357 338 316 310 308 304 300 298 297
30 35 40 43 64 113 148 161 169 174 180 188 194 198 203 208 212 212 209 210 212 211 211 211 212 216 219 223 228 232 235 235 234 234 233 228 223 218 213 207 198 186 180 177 176 177 176 172 162 151 141 132 123 111 101 91 78 79 85 85 84 85 84 81 79 76 69 64 56 48 49 45 30 25 20 9 2 342 313 297 294 296 294 293 296
34 38 39 38 41 47 68 149 168 175 181 190 197 201 205 209 213 214 213 214 215 216 214 213 213 216 220 224 229 233 236 237 236 237 237 234 229 224 219 214 205 195 189 185 182 182 182 181 177 166 157 149 137 123 110 98 84 78 79 78 77 80 83 79 74 70 64 59 52 45 46 42 26 21 15 1 356 342 314 289 280 279 280 279 283
30 35 37 36 41 46 46 51 82 156 183 192 200 205 208 213 217 218 219 219 219 221 219 216 216 218 219 223 227 231 234 236 236 237 238 237 234 229 224 219 212 204 198 194 191 190 189 189 187 179 171 165 156 140 123 109 92 79 78 75 67 69 77 75 65 58 49 44 39 33 34 29 15 8 4 353 345 325 300 285 272 267 269 271 274
24 29 35 35 41 49 51 52 60 74 122 178 196 207 212 217 220 222 224 223 223 225 224 222 221 222 223 224 227 232 235 234 234 237 239 239 237 233 229 222 216 211 204 201 199 198 198 197 193 189 184 179 175 168 158 141 106 83 81 73 59 58 67 65 58 52 46 36 23 12 5 2 358 352 344 338 327 312 295 277 270 266 264 266 270
22 23 26 27 35 48 52 54 62 67 67 73 98 203 230 227 226 226 226 225 225 227 228 227 227 228 227 224 225 231 235 233 232 235 238 240 238 235 233 226 219 215 210 206 204 204 204 202 198 195 191 188 183 178 172 160 141 110 85 64 48 46 47 42 38 36 34 24 11 355 338 326 322 315 314 313 307 305 296 273 266 271 267 266 269
25 23 25 24 27 38 47 50 56 59 57 58 62 56 30 302 253 241 232 228 227 228 231 233 232 231 231 228 227 230 235 233 232 233 236 238 238 236 235 230 222 218 215 211 209 208 205 203 199 196 192 189 184 179 173 160 150 137 109 77 57 45 31 23 21 17 11 5 358 347 336 325 311 301 298 298 298 296 290 277 270 273 272 269 269
27 27 31 32 30 33 40 45 48 51 50 51 55 55 48 36 9 303 254 242 235 232 234 237 236 235 235 234 232 233 236 236 234 234 236 237 237 236 235 233 227 222 218 215 213 211 207 202 198 195 191 187 184 181 175 165 157 143 125 104 81 60 35 19 10 2 355 350 346 340 334 328 319 310 301 298 297 294 290 284 278 273 272 271 269
36 37 38 40 41 39 39 42 44 45 46 45 47 50 51 46 38 32 20 330 271 248 243 243 243 242 240 239 237 236 238 238 237 237 238 238 238 236 235 234 231 225 220 217 215 213 208 202 197 193 190 187 185 182 176 170 163 147 132 119 97 70 42 17 355 347 342 338 335 330 327 323 318 311 305 300 296 293 293 290 285 279 271 270 269
33 34 32 33 38 39 39 40 41 43 43 40 39 41 42 39 34 34 36 31 13 308 259 251 249 246 243 241 242 242 241 242 242 240 240 240 239 237 235 233 232 227 222 219 216 212 208 203 198 194 190 187 185 181 175 172 169 161 148 127 84 38 3 345 334 330 327 323 319 315 313 314 311 306 302 299 294 293 292 288 286 284 278 274 272
30 30 28 27 28 30 32 33 34 36 37 38 37 35 32 29 27 27 29 30 30 24 344 265 250 245 244 245 246 247 246 245 245 245 244 242 240 239 236 233 232 227 220 217 215 212 207 203 199 195 190 186 181 177 174 173 175 177 174 11 358 352 338 329 325 323 318 313 309 305 303 302 300 297 295 293 290 289 287 285 282 281 278 275 271
33 33 28 25 23 21 23 23 23 25 27 29 29 26 20 15 15 18 19 20 21 21 19 355 277 254 250 250 250 252 252 251 250 248 247 244 242 241 238 234 229 221 216 217 216 211 207 203 199 194 189 185 181 177 179 181 183 190 204 338 341 340 332 327 327 324 319 314 307 303 300 296 293 292 291 290 290 288 284 282 280 279 278 275 271
45 43 33 27 22 18 18 17 16 16 18 19 19 16 12 8 7 7 8 10 8 7 8 5 351 311 273 261 257 257 257 257 256 253 250 246 244 244 240 235 228 221 220 222 217 209 204 201 197 192 187 185 183 182 186 189 190 203 291 335 337 338 336 338 340 337 333 326 317 309 302 297 292 288 286 285 285 284 283 282 280 278 278 277 275
41 40 34 25 14 12 14 13 13 11 10 11 10 7 5 3 2 1 1 1 360 358 357 354 350 341 316 292 275 266 263 261 258 256 253 250 247 246 241 236 230 224 220 217 211 204 202 199 194 191 187 185 186 188 193 198 201 218 285 323 335 349 2 3 356 350 346 339 330 321 313 309 306 300 294 289 282 277 275 275 274 274 275 275 276
37 29 22 13 3 2 6 8 11 7 2 359 356 354 353 352 354 354 355 354 353 352 350 346 342 337 330 320 299 280 271 266 260 255 253 251 248 245 239 231 226 220 213 208 202 201 203 200 193 189 185 184 187 191 197 202 205 219 259 318 353 21 25 14 359 348 343 340 335 326 319 319 319 315 309 301 294 285 277 272 270 269 269 271 272
31 19 10 5 1 360 0 1 1 357 353 349 346 344 343 344 347 346 345 346 345 343 342 339 336 333 329 325 313 292 274 266 261 255 251 247 244 240 233 224 218 214 208 203 199 198 199 196 190 186 183 181 183 187 192 198 200 201 213 291 11 15 11 3 354 345 337 334 333 327 322 321 320 317 311 304 299 294 287 280 275 270 267 265 264
20 10 4 1 358 356 354 349 346 345 343 341 338 335 334 336 337 336 335 336 336 334 332 331 331 330 328 322 316 302 277 262 258 254 248 242 238 233 226 217 212 207 201 196 194 194 193 190 186 183 180 178 179 182 187 189 189 200 255 319 345 354 354 349 346 342 336 333 329 325 322 318 315 317 315 306 299 294 289 285 281 277 272 267 262
3 357 353 352 349 343 337 332 330 332 332 331 329 325 324 328 328 327 328 328 326 324 323 323 324 326 324 319 313 304 284 263 255 251 246 239 232 225 218 212 207 201 195 191 191 190 188 186 183 180 179 179 180 181 182 184 194 240 302 316 321 334 337 339 341 339 334 331 328 324 321 315 312 315 313 304 297 297 294 290 287 283 278 274 269
309 334 338 339 334 325 320 320 320 321 322 323 322 319 319 323 324 324 324 322 319 316 315 316 318 319 319 315 309 302 288 271 257 250 244 236 227 220 215 209 202 195 190 188 187 184 181 181 180 179 181 182 182 180 179 185 207 268 304 310 314 324 331 334 336 335 331 328 326 323 318 314 312 311 308 302 301 302 301 298 294 289 283 279 276
294 313 322 323 322 317 313 312 313 315 316 315 315 316 316 318 320 319 318 316 314 310 308 308 310 311 312 310 306 299 288 275 259 251 243 232 223 217 211 204 198 193 189 185 182 178 176 176 178 181 184 184 183 178 177 191 225 272 296 306 310 317 323 325 327 329 327 322 322 320 316 312 310 308 305 304 303 302 302 301 296 291 287 283 277
291 305 307 308 313 312 308 306 306 306 306 304 306 310 311 311 313 313 311 310 308 305 302 300 301 303 304 303 302 295 284 270 255 246 237 226 220 214 207 201 196 190 185 181 178 175 174 175 178 183 184 183 182 180 186 209 237 271 294 303 304 307 313 315 319 322 320 314 314 316 313 308 304 302 301 302 303 302 301 299 296 292 290 285 280
284 289 291 297 304 306 304 303 302 300 297 297 301 305 304 303 305 305 303 301 299 297 296 294 294 296 298 298 297 290 278 263 247 238 231 224 218 211 204 199 192 185 180 177 175 174 176 178 181 184 185 183 183 188 202 220 241 274 296 300 299 298 301 306 311 314 312 307 307 312 313 307 299 296 296 297 299 299 297 296 294 292 289 286 283
291 292 295 298 302 303 303 301 298 294 294 297 300 302 300 298 298 297 295 294 290 288 288 287 287 289 292 292 289 284 273 257 240 232 228 223 215 208 202 196 190 184 179 176 174 175 177 180 182 183 183 183 188 203 222 235 250 277 299 303 298 293 294 300 305 306 304 300 302 310 314 309 298 292 293 295 295 294 293 292 292 290 288 285 285
295 295 295 296 298 299 298 295 289 287 292 296 297 296 295 294 293 292 291 289 284 283 284 284 283 285 285 283 280 276 267 252 235 229 227 221 212 205 198 191 186 179 174 173 175 175 175 178 180 181 183 187 199 224 238 245 257 283 301 302 295 289 291 296 300 301 302 300 298 302 308 306 300 296 297 296 294 291 288 288 288 287 285 283 284
293 292 291 292 293 292 289 286 283 285 290 293 291 289 287 286 288 286 283 281 282 284 286 285 283 281 279 275 273 268 260 246 232 228 224 216 208 202 192 185 181 176 173 176 177 174 172 175 178 185 196 206 221 237 243 249 265 291 302 300 293 289 291 297 301 302 302 301 299 298 301 303 300 296 294 293 291 288 285 284 284 282 280 280 283
285 285 286 286 283 280 278 278 281 285 289 289 287 283 279 280 281 277 275 280 283 285 285 284 281 277 274 271 268 263 254 241 229 225 219 210 204 199 189 181 177 174 172 172 170 169 171 176 184 198 213 224 235 243 248 260 280 296 301 298 292 288 291 298 302 302 301 301 302 301 301 300 296 291 290 290 289 287 284 283 280 276 275 277 279
276 277 278 274 271 271 270 273 279 284 285 285 283 277 275 277 274 270 276 281 281 281 282 283 280 275 272 271 268 261 251 237 225 221 214 203 196 191 185 178 173 169 166 164 163 165 169 181 199 210 220 236 248 256 266 278 289 297 301 300 296 294 298 300 299 299 299 299 301 302 301 298 294 290 290 290 289 289 286 282 278 275 274 275 276
275 275 273 269 268 268 265 267 274 279 281 281 278 272 272 273 270 274 280 280 277 277 280 279 276 273 271 270 267 259 244 228 217 210 201 189 181 176 172 168 163 159 159 160 161 165 172 189 208 214 221 241 255 267 280 290 299 306 311 313 311 311 312 308 299 296 297 298 300 299 296 293 291 291 291 291 290 289 286 281 277 276 276 277 276
277 275 274 271 269 267 266 267 270 272 275 275 270 267 267 267 271 278 281 278 275 277 277 273 272 270 268 268 263 249 229 213 202 191 178 166 160 158 155 153 152 152 156 160 167 177 185 194 204 210 217 239 265 286 301 312 319 319 317 317 316 315 315 311 304 298 296 297 297 295 293 294 295 295 295 294 292 289 286 282 280 281 281 280 277
280 278 274 271 269 268 267 268 268 269 271 270 266 262 260 263 270 275 274 272 272 272 269 266 265 266 266 263 248 221 204 195 185 175 163 152 147 145 145 149 154 158 161 167 178 186 187 183 180 185 202 261 319 335 338 332 324 318 315 314 314 313 311 309 306 301 298 298 297 296 297 298 298 298 297 294 292 289 286 284 284 284 282 278 273
280 280 278 277 277 275 271 270 270 269 268 267 265 262 259 262 267 267 265 266 267 264 259 256 258 264 262 243 207 182 174 170 163 157 150 143 140 139 141 149 160 164 165 170 176 177 170 155 147 158 193 355 357 354 345 332 326 322 318 316 316 315 312 311 310 308 305 304 302 300 300 298 297 296 295 292 289 288 287 287 288 286 280 274 269
279 281 282 281 281 280 277 276 275 272 270 271 271 269 266 265 265 262 261 261 258 255 251 246 248 255 244 207 175 157 151 150 148 144 140 137 137 139 143 153 162 163 158 154 154 156 154 146 142 141 52 12 2 0 352 340 333 328 322 320 320 319 318 317 316 313 310 307 304 301 300 299 300 299 297 295 294 293 292 292 291 288 281 274 270
281 283 283 282 282 281 280 281 281 280 280 281 280 276 272 268 265 261 258 256 252 248 243 239 240 237 211 182 165 154 148 144 143 142 141 143 148 152 157 162 163 158 152 150 152 157 158 148 134 118 66 21 10 9 358 342 332 327 325 325 325 325 324 320 316 315 313 308 305 304 305 306 307 306 304 303 301 299 297 295 292 288 284 280 277
283 284 283 282 282 281 281 282 282 283 285 284 280 276 272 268 265 262 259 254 247 240 235 232 226 208 185 169 160 154 149 145 144 145 145 148 156 162 163 159 154 151 152 154 156 157 155 144 126 103 74 46 28 6 345 334 329 326 327 328 328 329 327 321 318 319 317 311 308 310 312 312 312 311 309 308 306 304 301 297 293 290 287 284 281
285 285 285 283 281 280 280 280 280 282 283 281 277 274 273 271 269 263 255 248 239 233 230 222 203 184 170 161 154 151 148 147 148 149 147 147 150 154 154 149 144 144 148 151 151 149 145 139 123 105 88 62 32 360 341 336 335 335 336 335 334 336 335 332 333 331 323 316 316 318 318 317 316 314 311 309 307 305 302 298 296 292 289 286 284
285 285 284 282 281 278 277 277 278 279 279 277 277 278 276 271 264 253 245 239 232 222 212 198 182 168 160 154 150 147 147 148 150 149 146 143 142 143 146 146 144 144 147 150 150 143 134 127 120 111 94 58 26 7 354 352 352 352 353 352 352 357 359 355 350 342 328 323 327 326 322 319 317 314 311 309 308 305 303 300 298 295 292 290 286